{"data":{"norad_id":61936,"intl_designator":"2024-208A","name":"HAIYANG-4 01","alt_names":[],"object_type":"PAYLOAD","status":"ACTIVE","operator":null,"country":"PRC","launch_date":"2024-11-13","launch_site_code":"TAISC","launch_vehicle":null,"mission":null,"orbit_class":"UNKNOWN","rcs_meters":null,"size_class":null,"mass_kg":null,"dimensions":null,"purposes":[],"wikipedia_slug":null,"has_3d_model":false,"image_url":null,"decayed_at":null,"tle_current":{"epoch":"2026-09-22T23:47:30.861024Z","epoch_age_seconds":89604,"freshness":"FRESH","line1":"1 61936U 24208A   26265.99132941  .00000274  00000+0  50079-4 0  9997","line2":"2 61936  98.0074 272.4247 0001210 117.1535 242.9797 14.73292320 99843","mean_motion":14.7329232,"eccentricity":0.000121,"inclination_deg":98.0074,"raan_deg":272.4247,"arg_perigee_deg":117.1535,"mean_anomaly_deg":242.9797,"bstar":5.0079e-5,"rev_number":9984,"period_min":97.740277367359,"perigee_km":649.72683656675,"apogee_km":651.42778543001,"semimajor_km":7028.7143109984,"source":"CELESTRAK","updated_at":"2026-09-23T09:00:21.142340Z"}}}